Regional Weather Roundup
Issued by NWS

Home | Current Version | Previous Version | Graphics & Text | Print | Product List | Glossary Off
Versions: 1 2 3 4 5 6 7 8 9 10 11 12 13 14 15 16 17 18 19 20 21 22 23 24 25 26 27 28 29 30 31 32 33 34 35 36 37 38 39 40 41 42 43 44 45 46 47 48 49 50

000
ASUS44 KMEG 041810
RWRTN
TENNESSEE HOURLY STATE WEATHER ROUNDUP
NATIONAL WEATHER SERVICE MEMPHIS TN
100 PM CDT TUE AUG 04 2015

TNZ002-004-019-021-049-052-054-088>092-041900-
WEST TENNESSEE

CITY           SKY/WX    TMP DP  RH WIND       PRES   REMARKS
MEMPHIS INTL   MOSUNNY   97  68  38 VRB6      30.00F HX 102
NWS MEMPHIS      N/A     94 N/A N/A MISG        N/A
JACKSON        MOSUNNY   93  70  46 W6        30.01F HX  99
DYERSBURG        N/A    N/A N/A N/A MISG        N/A
PARIS          SUNNY     91  70  49 W9        30.01F HX  97
LEXINGTON      SUNNY     93  70  46 SW7       30.01F HX  99
$$

TNZ008-025-027-028-033-062-065-066-041900-
NORTH MIDDLE TENNESSEE

CITY           SKY/WX    TMP DP  RH WIND       PRES   REMARKS
NASHVILLE      PTSUNNY   94  64  37 SW8       30.01F HX  95
CLARKSVILLE    MOSUNNY   91  70  49 W9        30.00F HX  96
SMYRNA         MOSUNNY   98  69  38 VRB3      30.01F HX 104
COOKEVILLE     SUNNY     93  73  52 SW7       30.04F HX 102
CROSSVILLE     MOSUNNY   86  65  49 NW7       30.10F
$$

TNZ061-075-076-078-094-096-097-041900-
SOUTH MIDDLE TENNESSEE

CITY           SKY/WX    TMP DP  RH WIND       PRES   REMARKS
FAYETTEVILLE     N/A     91  64  40 CALM      30.04S HX  93
WINCHESTER     SUNNY     91  66  43 W8        30.04S HX  94
MCMINNVILLE    SUNNY     91  72  52 VRB3      30.04F HX  98
COLUMBIA       SUNNY     97  70  41 CALM      30.01S HX 103
SHELBYVILLE    PTSUNNY   95  72  46 CALM      30.04S HX 103
$$

TNZ017-018-042-046-047-041900-
NORTHEAST TENNESSEE

CITY           SKY/WX    TMP DP  RH WIND       PRES   REMARKS
TRI CITIES     MOSUNNY   90  64  42 VRB7      30.06F HX  91
ELIZABETHTON   PTCLDY    88  66  48 W5        30.07S HX  90
$$

TNZ012-013-036-069-073-074-041900-
CENTRAL EAST TENNESSEE

CITY           SKY/WX    TMP DP  RH WIND       PRES   REMARKS
KNOXVILLE      PTSUNNY   90  68  48 CALM      30.03  HX  94
OAK RIDGE      PTSUNNY   91  70  49 VRB5      30.04F HX  96
GATLINBURG       N/A     90  66  45 CALM      30.03F HX  92
MORRISTOWN     CLEAR     90  70  51 VRB3      30.06F HX  95
$$

TNZ083-085-099-041900-
SOUTHEAST TENNESSEE

CITY           SKY/WX    TMP DP  RH WIND       PRES   REMARKS
CHATTANOOGA    PTSUNNY   94  66  39 VRB3      30.01F HX  97
$$

SKY/WX REPORTED AS FAIR MEANS FEW OR NO CLOUDS BELOW
12 THOUSAND FEET.




USA.gov is the U.S. government's official web portal to all federal, state and local government web resources and services.